RH
13 13 13 12 11 11 15 19 20 22 25 29 32 32 34 36 36 37 38 39 42 47 48 48 50 54 54 54 56 58 58 61 63 61 59 60 60 57 54 52 49 47 44 43 43 43 43 43 42 44 45 46 45 42 42 42 39 38 35 34 34 30 29 29 26 23 24 25 25 25 26 26 27 28 29 30 30 29 29 31 33 34 36 36 36 35
15 15 12 9 9 12 17 20 21 22 24 27 29 31 32 34 34 36 38 40 43 45 47 50 53 54 53 54 55 57 59 59 61 61 59 59 60 59 57 53 50 48 45 43 43 42 42 42 41 41 42 43 43 41 41 41 39 38 37 35 34 31 29 29 27 24 22 23 23 24 25 25 26 27 28 29 28 28 28 30 32 34 35 35 35 33
17 15 10 9 13 17 19 20 21 22 23 26 28 29 30 30 33 37 37 39 41 42 46 51 52 50 49 54 56 56 58 59 60 61 60 60 60 60 59 55 52 50 46 43 42 42 41 40 40 39 39 40 40 39 40 41 40 39 37 37 35 32 29 28 27 25 22 22 23 24 24 25 26 26 26 28 29 29 29 30 31 33 35 36 34 31
20 16 11 11 15 19 20 21 21 22 22 24 27 29 27 28 33 36 36 38 40 42 46 50 51 50 50 54 57 56 57 58 60 62 61 59 58 58 58 56 55 51 47 43 41 40 40 39 38 38 37 38 38 38 39 40 41 39 36 36 36 32 28 28 27 26 24 23 24 25 25 26 27 27 28 30 31 31 30 29 30 32 34 35 35 32
21 17 14 14 16 19 21 22 22 22 22 23 24 26 25 26 29 32 35 39 40 40 44 49 53 55 54 54 54 54 57 58 60 61 61 59 58 58 57 56 57 54 50 48 44 41 40 39 37 37 37 37 37 36 36 37 37 37 34 33 35 33 30 28 28 28 27 25 24 25 27 29 31 31 32 31 31 31 30 29 29 30 32 34 35 32
22 19 19 17 17 21 23 23 22 22 22 22 22 21 21 24 26 31 37 41 41 42 43 45 52 57 53 49 50 53 57 58 59 60 59 58 58 58 57 56 58 57 53 53 50 45 42 40 38 38 38 38 37 36 35 34 35 36 33 32 35 34 32 30 29 30 29 26 24 24 26 28 30 31 30 28 27 28 29 28 27 29 30 31 33 33
24 22 22 21 19 22 25 24 22 21 22 21 18 17 20 22 26 34 39 41 42 42 43 43 46 52 50 46 47 50 53 56 58 58 56 57 57 57 57 55 57 58 57 54 52 48 44 43 40 38 37 36 35 34 35 34 34 35 34 33 34 35 33 31 30 31 31 28 26 24 24 25 25 25 25 24 25 26 27 27 26 27 29 29 31 32
25 25 25 24 23 22 24 24 20 20 21 18 13 15 21 21 25 36 42 41 41 40 41 41 40 44 47 44 45 48 51 55 56 56 54 55 57 56 56 55 56 58 59 57 52 49 47 45 42 39 37 35 34 34 34 34 34 34 34 33 33 34 33 31 30 32 32 29 26 24 24 24 23 23 23 24 25 26 27 27 25 25 27 28 29 30
25 27 26 25 26 24 21 19 18 21 21 16 14 16 20 21 24 38 47 44 41 41 41 40 37 41 45 43 45 50 52 54 53 52 51 53 55 55 55 55 54 55 57 58 54 50 48 46 45 43 38 35 35 34 33 33 32 33 33 32 32 33 32 30 30 31 32 30 27 25 25 24 23 23 24 25 25 25 25 26 25 25 25 27 28 28
25 27 29 28 27 25 23 20 19 22 21 17 16 16 17 20 25 40 49 46 46 47 43 39 37 40 42 42 46 52 52 50 49 47 46 48 51 53 54 55 54 53 54 56 55 52 49 46 45 45 42 37 34 33 32 32 32 33 32 32 32 32 31 30 29 29 30 30 28 26 24 23 23 23 24 25 25 25 24 24 24 24 24 25 27 28
26 30 33 32 28 25 25 24 23 22 20 20 20 17 17 19 29 45 50 46 49 49 40 37 36 36 37 38 42 47 46 44 44 43 43 44 48 50 52 54 55 53 52 52 53 52 50 47 44 45 46 41 35 32 32 32 31 32 33 32 31 31 30 29 28 28 28 29 28 25 23 23 22 22 23 23 24 24 23 23 22 22 22 23 24 26
28 33 35 34 32 30 28 27 26 24 22 23 24 22 21 20 28 44 51 50 52 48 38 35 35 34 33 33 35 38 39 40 40 39 40 42 44 45 48 51 53 52 51 50 51 52 51 49 45 45 46 43 38 33 31 30 29 30 32 32 31 31 30 29 28 27 27 28 28 25 23 23 22 22 21 21 21 22 22 21 21 21 22 22 22 24
30 32 34 36 37 37 35 31 29 30 28 29 28 26 27 25 26 38 49 49 48 46 40 36 36 35 29 27 30 33 35 38 37 36 37 39 39 40 42 46 50 50 49 49 50 51 51 50 47 45 44 43 40 35 32 31 30 29 30 30 31 30 30 28 28 28 28 28 27 25 24 23 22 22 21 20 20 20 21 21 21 21 21 21 21 22
29 30 32 37 40 39 38 34 31 32 31 32 32 30 31 32 32 36 41 43 43 43 39 34 36 33 26 23 26 29 31 33 34 35 37 37 36 37 39 42 47 48 48 48 49 49 49 49 47 45 44 43 41 37 34 32 30 29 28 28 29 30 29 28 27 27 27 27 26 25 24 23 23 22 20 20 19 19 20 20 20 20 21 21 21 20
30 29 28 31 36 37 38 36 31 30 30 30 29 29 30 28 29 31 33 34 37 37 33 31 32 29 23 24 25 25 27 28 31 34 36 38 38 37 38 40 43 46 46 46 46 46 48 48 47 45 45 44 42 39 35 33 31 28 27 27 27 28 29 28 27 26 26 26 26 25 24 24 23 22 21 20 19 18 19 19 19 19 20 20 20 20
33 27 22 25 32 35 37 35 31 32 32 29 29 31 29 23 23 26 26 26 27 28 27 27 29 26 22 22 23 24 26 26 29 32 36 38 39 39 40 39 40 43 44 44 45 45 47 48 46 45 45 43 42 40 37 33 30 27 26 25 25 26 28 28 27 25 24 24 25 24 24 23 22 22 22 21 20 19 18 19 18 18 18 18 18 18
43 31 23 29 34 34 34 34 33 34 31 29 32 31 26 21 22 26 26 23 23 24 24 22 23 22 20 19 19 22 23 25 28 31 33 36 38 38 39 38 37 38 39 41 44 45 46 47 46 44 45 44 41 41 38 35 30 27 25 25 25 25 27 27 27 26 24 24 24 25 24 23 22 22 22 21 20 19 18 19 18 17 17 17 17 16
47 37 28 30 33 31 34 38 37 35 31 31 31 26 24 25 25 26 27 25 24 24 23 21 19 18 19 19 19 19 20 22 26 29 31 34 36 35 35 36 35 34 37 40 43 44 45 46 45 44 45 45 43 40 39 37 33 30 28 26 25 25 25 26 27 26 25 24 24 24 24 23 21 21 21 20 20 19 19 19 18 18 17 16 15 15
44 44 33 27 30 31 35 43 44 39 35 31 27 23 27 30 26 25 29 28 27 26 22 21 20 18 18 19 18 16 17 19 23 26 28 30 31 30 30 33 34 34 37 40 43 45 44 45 45 44 45 45 45 42 39 39 37 33 31 29 27 25 24 25 26 27 26 25 24 24 23 22 21 20 20 20 20 20 19 18 18 18 17 16 15 15
45 53 44 31 31 34 36 44 45 39 34 31 29 27 27 27 24 24 26 25 27 30 25 20 20 19 18 18 16 15 16 16 20 23 24 25 26 24 25 28 30 32 36 40 44 44 43 43 44 44 45 45 45 43 40 41 40 36 33 32 31 28 25 25 26 27 27 26 25 24 24 23 22 21 20 19 20 20 18 17 17 17 17 16 15 14
46 55 50 37 35 35 35 39 39 35 33 31 30 29 26 25 24 22 22 23 26 31 30 23 19 18 19 18 15 14 14 14 16 19 21 22 22 21 21 22 24 29 34 40 42 41 40 40 42 44 45 45 45 44 41 40 40 38 35 33 32 30 27 25 25 26 26 27 26 25 24 24 23 22 21 21 21 20 18 17 16 16 16 16 15 14
49 56 55 45 41 39 35 33 35 37 37 33 29 27 24 24 25 25 25 24 23 26 28 24 19 16 17 17 15 14 14 13 14 16 18 20 21 19 19 20 20 24 29 35 38 37 37 38 39 43 45 46 46 43 40 39 39 38 35 33 33 32 29 26 25 25 25 26 27 26 25 24 23 22 22 21 21 20 19 18 16 16 16 15 14 13
51 57 58 50 44 39 32 31 35 40 40 36 31 26 25 24 24 25 26 23 21 22 24 23 19 15 14 15 14 12 12 12 13 14 16 18 19 18 17 18 19 20 23 29 33 36 36 36 37 42 44 46 46 43 40 38 38 38 35 33 33 32 30 27 25 24 25 26 26 26 25 25 23 22 22 21 20 19 18 18 17 17 16 15 14 13
56 60 57 49 41 33 29 30 33 36 38 38 34 28 25 25 22 22 25 23 20 20 21 22 19 13 12 15 14 12 11 11 11 12 13 15 17 17 17 17 19 19 20 25 31 35 37 36 36 41 44 45 45 43 39 38 37 36 36 34 32 32 31 29 27 25 24 25 25 25 25 25 23 22 21 21 19 18 17 17 18 17 17 16 14 14
64 64 58 54 51 39 31 33 36 40 42 41 39 33 26 24 22 22 25 24 21 19 18 20 19 12 10 15 16 16 15 14 13 12 11 12 14 15 17 17 18 20 20 23 30 34 37 36 36 39 43 44 45 43 39 38 37 35 36 34 31 30 31 30 28 26 25 24 24 25 25 24 23 22 21 20 20 18 18 17 18 17 17 16 15 14
69 67 58 60 64 52 41 44 49 52 51 43 40 36 29 26 24 25 26 25 23 22 19 18 17 11 10 14 16 17 18 16 15 13 12 11 12 12 14 16 17 19 20 23 29 33 36 37 34 36 42 44 44 43 40 39 37 35 35 32 29 28 29 30 29 27 25 24 24 24 24 23 22 21 20 20 20 20 19 18 17 17 17 17 16 15
69 66 60 58 60 54 48 50 51 54 53 44 39 37 33 29 27 26 28 25 23 24 20 17 16 13 13 15 16 17 19 18 17 14 12 13 12 12 12 14 16 18 20 23 26 30 35 35 33 37 43 45 44 42 40 39 37 36 35 31 28 27 28 29 29 28 26 24 24 23 23 22 22 21 20 21 21 21 20 19 18 17 17 17 17 16
71 68 61 57 56 51 49 50 48 49 51 47 42 38 34 32 30 27 26 24 24 24 21 20 19 15 14 16 16 17 20 20 18 15 14 14 14 13 13 13 15 17 20 22 23 26 31 33 34 39 44 44 43 42 40 38 37 36 35 30 27 27 27 28 29 28 27 26 24 22 22 22 22 22 21 21 22 22 22 21 19 18 18 18 18 18
73 70 63 58 56 50 46 47 49 50 49 48 45 41 37 35 33 28 24 23 25 22 19 22 22 17 15 17 17 17 20 21 20 17 16 15 15 14 13 14 15 16 18 20 21 23 28 31 36 41 43 43 43 42 40 38 38 37 34 29 26 27 27 27 27 27 27 25 23 22 21 22 22 22 23 22 23 23 23 22 21 21 21 21 20 20
73 73 67 60 57 50 44 46 51 52 50 49 48 45 42 38 35 30 26 25 25 22 19 22 22 17 16 19 19 20 22 23 23 21 19 18 17 15 14 15 16 16 17 18 19 22 26 31 38 42 43 44 43 41 40 39 38 37 32 29 27 27 27 27 28 27 25 24 22 21 21 21 22 22 23 23 23 23 23 23 24 25 25 25 23 21
75 76 70 63 59 52 45 46 51 54 55 54 54 51 48 41 34 30 29 27 26 23 22 23 21 18 21 23 23 24 25 25 27 25 23 21 19 17 15 15 16 17 18 19 20 23 28 35 40 41 42 43 42 40 40 39 38 36 33 31 29 28 27 29 29 29 27 25 23 22 22 21 21 21 22 22 23 23 25 27 27 28 29 28 26 24
79 78 73 67 64 57 49 47 52 59 62 61 59 56 50 44 38 36 38 38 33 29 27 24 20 21 25 27 26 29 32 34 34 33 27 23 21 20 18 17 17 17 18 20 21 24 30 36 38 37 37 40 42 41 39 38 38 37 34 32 30 29 29 30 30 30 31 31 31 30 29 27 25 24 24 25 26 28 29 30 31 31 32 31 29 27
82 81 77 72 70 63 54 51 57 65 69 69 69 63 55 49 46 46 48 46 42 38 34 27 23 24 29 30 31 35 39 41 43 40 32 24 22 22 21 19 18 17 18 20 22 25 30 32 32 32 33 37 41 39 38 38 38 37 35 34 33 31 30 30 31 32 34 35 36 36 36 36 35 34 34 33 33 33 32 32 33 33 34 33 32 31
83 81 78 74 72 67 60 59 66 72 74 75 74 68 60 55 52 53 54 50 45 43 40 36 32 31 33 37 40 41 40 41 43 41 34 26 22 21 22 20 19 18 19 22 25 29 31 30 29 30 32 37 40 39 39 40 40 38 39 40 41 39 36 35 34 35 38 39 39 39 40 41 41 42 43 43 41 40 39 38 38 37 36 36 35 34
83 81 78 73 72 71 67 68 75 79 76 72 69 67 64 60 55 56 57 53 47 45 44 42 39 36 36 40 42 41 39 39 41 40 37 30 23 20 19 19 18 18 20 24 29 32 33 31 31 33 36 40 43 42 43 44 44 43 43 43 44 44 43 42 40 39 42 44 43 42 42 43 44 45 47 48 48 48 47 46 45 43 41 39 38 36
82 81 78 74 72 74 72 71 76 80 76 69 66 65 65 63 58 58 61 57 50 47 47 45 42 38 37 37 39 41 40 38 39 40 39 35 29 23 19 18 19 18 20 25 29 32 34 34 35 37 39 43 45 45 46 47 47 45 43 42 43 43 44 44 43 42 44 44 44 44 45 46 47 47 48 49 49 50 50 49 49 47 46 43 39 39
81 79 79 78 74 73 73 69 71 78 79 75 71 67 66 68 64 63 69 67 57 49 47 47 45 43 42 41 40 40 39 38 40 40 40 38 35 29 23 20 19 18 20 25 29 32 36 37 39 41 42 45 47 48 48 48 48 46 43 42 42 42 43 43 42 42 43 42 43 43 45 45 46 46 48 48 49 49 49 50 49 49 50 47 44 41
82 78 79 82 76 71 74 74 76 83 86 82 76 68 65 70 68 64 71 75 65 54 50 51 52 50 48 47 46 42 39 40 42 42 41 40 38 35 32 27 23 21 21 25 29 33 35 38 41 42 43 46 49 48 47 47 48 46 44 43 43 43 43 41 41 41 42 41 42 41 41 42 42 43 45 46 48 48 48 48 48 48 48 49 48 44
85 78 79 86 81 72 75 78 79 84 87 84 78 68 64 71 72 68 73 77 72 65 60 59 59 57 54 53 52 47 42 43 45 45 43 40 38 37 37 34 31 28 26 26 28 32 35 37 39 40 42 45 47 46 45 47 48 48 47 44 44 44 43 40 40 41 41 41 40 39 40 41 41 42 43 43 44 44 45 45 45 45 46 47 49 49
91 84 82 87 81 72 75 78 79 84 88 85 79 71 69 74 73 71 77 81 77 72 69 66 64 62 59 58 57 53 46 44 47 49 46 43 41 40 39 38 38 35 33 31 30 32 36 39 40 42 44 46 46 44 45 46 48 49 49 47 45 44 44 43 41 41 41 41 40 39 39 40 41 43 43 44 43 42 42 43 43 43 43 43 46 51
95 89 83 82 77 70 72 76 78 84 88 86 82 79 77 77 74 76 83 85 79 75 71 69 67 65 62 62 61 58 52 48 50 53 51 46 44 43 42 41 41 41 39 37 34 34 36 37 40 43 44 44 45 45 45 46 46 46 46 46 46 47 47 46 44 43 43 43 43 43 42 41 41 42 44 45 45 44 43 42 42 41 40 40 42 47
97 92 84 84 81 75 73 78 83 87 88 88 89 88 81 78 80 85 86 83 81 77 71 68 67 65 66 68 67 65 62 58 59 61 59 53 50 48 46 44 43 43 41 39 36 35 36 36 38 40 41 42 43 43 43 42 41 42 42 44 46 47 49 49 47 45 45 44 44 44 44 43 42 42 43 45 46 45 45 45 44 42 40 39 39 43
98 95 91 89 88 84 83 86 90 91 90 91 93 92 87 85 89 91 87 85 83 77 70 68 66 64 67 72 74 73 72 71 69 68 66 61 56 53 51 48 47 45 42 39 36 34 35 36 37 37 38 39 38 37 38 38 38 38 39 40 42 44 46 46 46 45 43 43 42 41 42 41 41 41 42 44 45 45 46 46 47 45 43 41 41 42
96 97 96 92 87 87 89 90 91 93 93 93 95 96 93 91 91 90 89 87 83 74 70 69 67 65 67 72 78 79 78 79 77 73 70 67 63 59 57 54 52 49 46 43 40 35 32 31 31 31 31 30 30 30 32 34 35 36 37 38 39 42 43 42 41 40 40 39 38 37 36 36 37 38 39 42 44 44 45 46 47 47 45 44 43 43
96 95 95 93 88 86 87 88 90 92 93 93 95 95 93 89 88 88 89 87 81 74 70 69 68 68 68 70 76 80 80 82 82 77 73 70 67 66 64 60 56 53 51 48 46 42 36 32 29 29 28 27 28 28 29 29 29 31 33 35 37 38 40 40 39 38 37 36 35 34 32 32 33 34 36 38 39 41 42 44 45 46 46 45 45 44
94 92 90 90 89 86 83 84 88 90 91 91 92 92 90 87 85 86 87 86 81 75 70 69 69 70 69 70 74 78 80 82 82 80 76 72 69 68 68 66 62 59 55 53 51 48 44 40 35 31 30 30 30 28 27 25 24 25 27 30 31 32 33 34 35 35 34 33 32 31 30 30 30 31 33 35 36 37 39 40 42 44 45 46 45 45
91 90 89 88 87 85 84 85 86 86 87 88 89 90 90 88 84 83 84 84 80 75 71 68 67 67 67 67 70 74 78 79 79 79 76 74 72 70 68 69 68 65 62 58 55 52 48 44 39 35 33 32 31 29 27 24 23 24 25 27 28 29 29 29 29 30 30 29 28 27 26 26 27 27 29 32 35 37 37 38 39 40 43 45 46 46
89 88 90 90 85 81 82 84 82 82 84 85 86 90 92 91 85 82 81 79 77 74 71 66 62 60 60 60 62 68 73 75 75 75 73 72 71 70 69 69 70 69 66 63 59 56 51 44 40 37 34 32 32 30 28 26 24 23 23 23 24 25 26 26 27 28 28 27 25 24 24 23 24 24 24 26 30 34 35 37 38 39 40 41 43 44
87 86 89 89 84 80 81 82 82 82 84 85 86 88 90 90 87 84 81 77 74 73 72 67 62 57 55 56 59 62 65 68 69 68 68 68 68 68 67 68 68 66 65 62 60 57 52 45 40 37 34 32 32 30 29 28 27 24 22 21 20 19 20 22 24 27 29 29 27 24 23 22 22 22 22 22 24 27 30 33 36 38 39 39 40 41
85 85 85 84 82 80 81 81 81 82 84 84 84 87 88 88 86 86 84 78 74 74 74 70 66 60 55 56 59 59 59 61 62 60 61 63 65 65 64 63 63 62 61 58 56 54 51 46 42 38 35 33 31 30 29 28 27 26 24 23 21 19 18 19 20 24 27 30 29 26 24 23 22 21 21 21 20 22 24 27 31 34 36 37 38 39
86 85 84 83 80 76 76 77 78 78 79 80 83 86 88 88 86 86 84 79 76 78 78 74 71 67 61 58 57 57 58 60 60 58 57 59 62 63 63 62 60 59 57 55 54 52 49 47 44 42 39 36 32 29 28 27 26 26 25 24 24 23 21 21 21 22 25 28 29 28 25 24 23 22 21 22 22 22 22 24 26 30 32 33 34 35